Retour au catalogue

ARIANE 5 R/B

ActifSSO
NORAD 28499·ROCKET BODY·🇫🇷 France

Lancé Dec 18, 2004 depuis Guiana Space Centre

Loading…

Prochains Passages (prochaines 24 heures)

TLE

FraisSource: Space-Track

Époque: Sep 14, 2026, 10:44 UTC

1 28499U 04049H   26257.44731402  .00000546  00000-0  66154-4 0  9997
2 28499  98.2790  73.2004 0084977  99.1933 261.8906 14.85557879173815

Suivez ARIANE 5 R/B en temps réel avec AllMySat

Download on the App Store